FW2834 Weather Reports


Display with metric or nautical units.
time (UTC)temp
F
wind
direction
speed
MPH
gust
MPH
rain 1hr
in
rain 24hr
in
rain mn
in
humidity
%
barometer
mb
20260902235042 88 163 0.0 0.0 0.00 0.00 0.00 57 1013.7
20260902234546 88 163 0.0 0.0 0.00 0.00 0.00 55 1013.7
20260902234043 88 163 0.0 0.0 0.00 0.00 0.00 55 1013.6
20260902233542 89 163 0.0 1.0 0.00 0.00 0.00 55 1013.6
20260902233048 89 163 0.0 1.0 0.00 0.00 0.00 55 1013.6
20260902232542 89 163 0.0 0.0 0.00 0.00 0.00 54 1013.7
20260902232041 90 163 0.0 0.0 0.00 0.00 0.00 54 1013.7
20260902231541 90 163 0.0 0.0 0.00 0.00 0.00 53 1013.7
20260902231042 90 163 0.0 0.0 0.00 0.00 0.00 53 1013.7
20260902230540 90 163 0.0 1.0 0.00 0.00 0.00 52 1013.7
20260902230040 90 163 0.0 2.0 0.00 0.00 0.00 51 1013.9
20260902225541 91 163 0.0 3.0 0.00 0.00 0.00 51 1013.8
20260902225041 91 212 0.0 2.0 0.00 0.00 0.00 50 1013.8
20260902224549 91 172 0.0 2.0 0.00 0.00 0.00 51 1013.9
20260902224039 91 186 0.0 2.0 0.00 0.00 0.00 49 1013.8
20260902223539 92 247 0.0 1.0 0.00 0.00 0.00 50 1013.8
20260902223053 92 247 0.0 0.0 0.00 0.00 0.00 50 1013.8
20260902222539 92 247 0.0 2.0 0.00 0.00 0.00 49 1013.8
20260902222038 92 247 0.0 2.0 0.00 0.00 0.00 48 1013.9
20260902221541 93 196 0.0 1.0 0.00 0.00 0.00 49 1013.9
20260902221041 93 196 0.0 2.0 0.00 0.00 0.00 48 1013.9
20260902220538 93 196 0.0 3.0 0.00 0.00 0.00 48 1013.9
20260902220042 93 248 0.0 3.0 0.00 0.00 0.00 48 1013.8
20260902215538 93 271 0.0 0.0 0.00 0.00 0.00 48 1013.8
20260902215037 93 271 0.0 0.0 0.00 0.00 0.00 49 1013.9
20260902214537 93 271 0.0 0.0 0.00 0.00 0.00 48 1014.0
20260902214037 93 271 0.0 2.0 0.00 0.00 0.00 48 1014.1
20260902213536 93 275 0.0 2.0 0.00 0.00 0.00 47 1014.0
20260902213038 93 248 0.0 2.0 0.00 0.00 0.00 46 1014.0
20260902212536 93 158 0.0 2.0 0.00 0.00 0.00 47 1014.0
20260902212036 93 163 0.0 1.0 0.00 0.00 0.00 47 1014.0
20260902211535 93 161 0.0 1.0 0.00 0.00 0.00 46 1014.1
20260902211035 94 106 0.0 0.0 0.00 0.00 0.00 47 1014.1
20260902210535 94 107 0.0 0.0 0.00 0.00 0.00 47 1014.0
20260902210035 94 107 0.0 1.0 0.00 0.00 0.00 45 1014.0
20260902205536 94 107 0.0 2.0 0.00 0.00 0.00 45 1014.0
20260902205035 94 107 0.0 2.0 0.00 0.00 0.00 44 1014.1
20260902204542 94 37 0.0 2.0 0.00 0.00 0.00 45 1014.1
20260902204034 95 223 0.0 2.0 0.00 0.00 0.00 45 1014.2
20260902203533 95 190 0.0 2.0 0.00 0.00 0.00 47 1014.1
20260902203032 95 5 0.0 2.0 0.00 0.00 0.00 46 1014.2
20260902202532 95 5 0.0 2.0 0.00 0.00 0.00 47 1014.3
20260902202029 95 17 0.0 2.0 0.00 0.00 0.00 46 1014.2
20260902201527 95 180 0.0 2.0 0.00 0.00 0.00 46 1014.3
20260902201027 95 28 0.0 2.0 0.00 0.00 0.00 46 1014.3
20260902200530 95 307 0.0 2.0 0.00 0.00 0.00 45 1014.3
20260902200026 95 341 0.0 2.0 0.00 0.00 0.00 47 1014.4
20260902195526 95 313 0.0 1.0 0.00 0.00 0.00 46 1014.5
20260902195027 95 53 0.0 1.0 0.00 0.00 0.00 47 1014.5
20260902194527 95 287 0.0 1.0 0.00 0.00 0.00 48 1014.5
20260902194024 95 287 0.0 1.0 0.00 0.00 0.00 46 1014.5
20260902193523 95 287 0.0 1.0 0.00 0.00 0.00 47 1014.6
20260902193023 95 288 0.0 1.0 0.00 0.00 0.00 47 1014.6
20260902192522 95 289 0.0 0.0 0.00 0.00 0.00 47 1014.7
20260902192021 95 291 0.0 1.0 0.00 0.00 0.00 47 1014.8
20260902191520 95 290 0.0 1.0 0.00 0.00 0.00 47 1014.8
20260902191022 95 290 0.0 1.0 0.00 0.00 0.00 45 1015.0
20260902190521 95 289 0.0 1.0 0.00 0.00 0.00 46 1015.0
20260902190021 95 289 0.0 1.0 0.00 0.00 0.00 45 1015.1
20260902185521 95 284 0.0 3.0 0.00 0.00 0.00 46 1015.0
20260902185021 95 284 0.0 3.0 0.00 0.00 0.00 46 1015.1
20260902184619 95 279 0.0 3.0 0.00 0.00 0.00 43 1015.0
20260902184019 94 186 0.0 6.0 0.00 0.00 0.00 48 1015.1
20260902183518 94 91 0.0 4.0 0.00 0.00 0.00 48 1015.2
20260902183036 94 223 0.0 2.0 0.00 0.00 0.00 50 1015.3
20260902182517 94 223 0.0 3.0 0.00 0.00 0.00 48 1015.3
20260902182017 94 338 0.0 3.0 0.00 0.00 0.00 49 1015.3
20260902181517 93 5 1.0 3.0 0.00 0.00 0.00 49 1015.3
20260902181016 93 286 0.0 2.0 0.00 0.00 0.00 50 1015.4
20260902180515 93 251 0.0 3.0 0.00 0.00 0.00 49 1015.4
20260902180015 93 355 0.0 3.0 0.00 0.00 0.00 49 1015.6
20260902175515 93 306 0.0 3.0 0.00 0.00 0.00 48 1015.6
20260902175015 93 279 1.0 3.0 0.00 0.00 0.00 46 1015.7
20260902174521 93 319 0.0 2.0 0.00 0.00 0.00 47 1015.7
20260902174015 93 190 0.0 5.0 0.00 0.00 0.00 48 1015.8
20260902173513 93 191 0.0 5.0 0.00 0.00 0.00 47 1015.7
20260902173023 93 50 0.0 3.0 0.00 0.00 0.00 48 1015.8
20260902172513 93 26 0.0 2.0 0.00 0.00 0.00 48 1015.9
20260902172013 94 13 0.0 2.0 0.00 0.00 0.00 49 1015.9
20260902171512 94 21 0.0 2.0 0.00 0.00 0.00 48 1015.9
20260902171012 94 21 0.0 2.0 0.00 0.00 0.00 47 1016.0
20260902170512 94 40 0.0 4.0 0.00 0.00 0.00 49 1016.0
20260902170011 94 318 1.0 4.0 0.00 0.00 0.00 47 1016.0
20260902165512 94 319 1.0 3.0 0.00 0.00 0.00 46 1016.0
20260902165013 95 334 1.0 3.0 0.00 0.00 0.00 47 1016.1
20260902164517 95 163 0.0 2.0 0.00 0.00 0.00 46 1016.1
20260902164010 95 161 1.0 2.0 0.00 0.00 0.00 46 1016.1
20260902163509 95 281 0.0 2.0 0.00 0.00 0.00 48 1016.1
20260902163008 94 169 0.0 2.0 0.00 0.00 0.00 50 1016.2
20260902162507 94 234 0.0 4.0 0.00 0.00 0.00 49 1016.2
20260902162006 94 192 0.0 4.0 0.00 0.00 0.00 48 1016.2
20260902161505 94 355 0.0 2.0 0.00 0.00 0.00 51 1016.2
20260902161004 94 117 0.0 2.0 0.00 0.00 0.00 52 1016.2
20260902160504 94 101 0.0 3.0 0.00 0.00 0.00 53 1016.2
20260902160000 93 101 0.0 3.0 0.00 0.00 0.00 53 1016.3
20260902155559 93 355 0.0 3.0 0.00 0.00 0.00 54 1016.3
20260902155058 93 319 0.0 2.0 0.00 0.00 0.00 55 1016.3
20260902154558 92 316 0.0 2.0 0.00 0.00 0.00 56 1016.5
20260902154055 92 257 0.0 2.0 0.00 0.00 0.00 56 1016.5
20260902153556 92 167 0.0 3.0 0.00 0.00 0.00 57 1016.4
20260902153104 91 221 0.0 2.0 0.00 0.00 0.00 56 1016.4
20260902152553 91 244 0.0 2.0 0.00 0.00 0.00 58 1016.6
20260902152049 90 257 0.0 1.0 0.00 0.00 0.00 59 1016.5
20260902151548 90 257 0.0 1.0 0.00 0.00 0.00 61 1016.6
20260902151046 89 227 0.0 1.0 0.00 0.00 0.00 62 1016.6
20260902150545 89 234 0.0 2.0 0.00 0.00 0.00 62 1016.6
20260902150043 88 234 0.0 2.0 0.00 0.00 0.00 63 1016.6
20260902145541 88 186 0.0 0.0 0.00 0.00 0.00 64 1016.5
20260902145043 87 186 0.0 0.0 0.00 0.00 0.00 66 1016.5
20260902144539 87 186 0.0 0.0 0.00 0.00 0.00 67 1016.6
20260902144038 86 186 0.0 0.0 0.00 0.00 0.00 67 1016.6
20260902143538 85 186 0.0 0.0 0.00 0.00 0.00 68 1016.5
20260902143034 84 186 0.0 0.0 0.00 0.00 0.00 69 1016.5
20260902142533 83 186 0.0 2.0 0.00 0.00 0.00 71 1016.5
20260902142032 83 186 0.0 2.0 0.00 0.00 0.00 73 1016.5
20260902141530 82 221 0.0 2.0 0.00 0.00 0.00 73 1016.5
20260902141029 81 221 0.0 2.0 0.00 0.00 0.00 74 1016.7
20260902140527 80 170 0.0 1.0 0.00 0.00 0.00 77 1016.7
20260902140026 79 170 0.0 1.0 0.00 0.00 0.00 78 1016.7
20260902135524 78 170 0.0 1.0 0.00 0.00 0.00 83 1016.7
20260902135023 77 111 0.0 1.0 0.00 0.00 0.00 86 1016.6
20260902134521 76 105 0.0 2.0 0.00 0.00 0.00 87 1016.6
20260902134022 76 105 0.0 2.0 0.00 0.00 0.00 88 1016.7
20260902133518 76 74 0.0 1.0 0.00 0.00 0.00 88 1016.7
20260902133018 75 57 0.0 1.0 0.00 0.00 0.00 88 1016.5
20260902132520 75 57 0.0 1.0 0.00 0.00 0.00 88 1016.5
20260902132016 75 57 0.0 1.0 0.00 0.00 0.00 88 1016.5
20260902131515 75 57 0.0 0.0 0.00 0.00 0.00 88 1016.5
20260902131015 74 57 0.0 0.0 0.00 0.00 0.00 88 1016.5
20260902130616 74 57 0.0 0.0 0.00 0.00 0.00 88 1016.5
20260902130013 74 57 0.0 0.0 0.00 0.00 0.00 87 1016.6
20260902125514 74 57 0.0 1.0 0.00 0.00 0.00 86 1016.5
20260902125012 73 57 0.0 2.0 0.00 0.00 0.00 86 1016.5
20260902124512 73 57 0.0 2.0 0.00 0.00 0.00 85 1016.4
20260902124014 73 57 0.0 1.0 0.00 0.00 0.00 83 1016.3
20260902123509 72 57 0.0 0.0 0.00 0.00 0.00 83 1016.4
20260902123008 72 57 0.0 0.0 0.00 0.00 0.00 82 1016.3
20260902122507 72 57 0.0 0.0 0.00 0.00 0.00 80 1016.4
20260902122007 72 57 0.0 0.0 0.00 0.00 0.00 80 1016.3
20260902121506 72 57 0.0 0.0 0.00 0.00 0.00 79 1016.2
20260902121005 72 57 0.0 0.0 0.00 0.00 0.00 79 1016.1
20260902120506 72 57 0.0 0.0 0.00 0.00 0.00 79 1016.2
20260902120005 72 57 0.0 0.0 0.00 0.00 0.00 79 1016.2
20260902115504 72 57 0.0 0.0 0.00 0.00 0.00 79 1016.2
20260902115002 72 57 0.0 0.0 0.00 0.00 0.00 78 1016.1
20260902114502 72 57 0.0 0.0 0.00 0.00 0.00 78 1016.0
20260902114001 71 57 0.0 0.0 0.00 0.00 0.00 78 1015.9
20260902113604 71 57 0.0 0.0 0.00 0.00 0.00 77 1015.9
20260902113100 71 57 0.0 0.0 0.00 0.00 0.00 77 1015.8
20260902112559 71 57 0.0 0.0 0.00 0.00 0.00 77 1015.8
20260902112100 72 57 0.0 0.0 0.00 0.00 0.00 77 1015.7
20260902111602 72 57 0.0 0.0 0.00 0.00 0.00 77 1015.7
20260902111059 72 57 0.0 0.0 0.00 0.00 0.00 77 1015.8
20260902110559 71 57 0.0 0.0 0.00 0.00 0.00 77 1015.7
20260902110105 72 57 0.0 0.0 0.00 0.00 0.00 76 1015.7
20260902105558 72 57 0.0 0.0 0.00 0.00 0.00 76 1015.9
20260902105058 72 57 0.0 0.0 0.00 0.00 0.00 76 1015.8
20260902104615 71 57 0.0 0.0 0.00 0.00 0.00 76 1015.8
20260902104058 72 57 0.0 0.0 0.00 0.00 0.00 76 1015.8
20260902103557 72 57 0.0 0.0 0.00 0.00 0.00 76 1015.8
20260902103110 72 57 0.0 0.0 0.00 0.00 0.00 76 1015.7
20260902102557 72 57 0.0 0.0 0.00 0.00 0.00 76 1015.7
20260902102056 72 57 0.0 0.0 0.00 0.00 0.00 76 1015.7
20260902101606 72 57 0.0 0.0 0.00 0.00 0.00 76 1015.7
20260902101057 72 57 0.0 0.0 0.00 0.00 0.00 76 1015.7
20260902100555 72 57 0.0 0.0 0.00 0.00 0.00 76 1015.6
20260902100056 72 57 0.0 0.0 0.00 0.00 0.00 76 1015.5
20260902095554 72 57 0.0 0.0 0.00 0.00 0.00 76 1015.6
20260902095056 72 57 0.0 0.0 0.00 0.00 0.00 76 1015.7
20260902094554 72 57 0.0 0.0 0.00 0.00 0.00 76 1015.6
20260902094054 72 57 0.0 0.0 0.00 0.00 0.00 75 1015.6
20260902093553 72 57 0.0 0.0 0.00 0.00 0.00 76 1015.6
20260902093052 72 57 0.0 0.0 0.00 0.00 0.00 75 1015.7
20260902092555 72 57 0.0 0.0 0.00 0.00 0.00 75 1015.7
20260902092052 72 57 0.0 0.0 0.00 0.00 0.00 75 1015.7
20260902091551 72 57 0.0 0.0 0.00 0.00 0.00 75 1015.5
20260902091050 72 57 0.0 0.0 0.00 0.00 0.00 75 1015.5
20260902090550 72 57 0.0 0.0 0.00 0.00 0.00 75 1015.4
20260902090050 72 57 0.0 0.0 0.00 0.00 0.00 75 1015.4
20260902085549 72 57 0.0 0.0 0.00 0.00 0.00 75 1015.3
20260902085047 72 57 0.0 0.0 0.00 0.00 0.00 75 1015.2
20260902084553 72 57 0.0 0.0 0.00 0.00 0.00 75 1015.3
20260902084049 72 57 0.0 0.0 0.00 0.00 0.00 75 1015.1
20260902083548 73 57 0.0 0.0 0.00 0.00 0.00 75 1015.1
20260902083052 73 57 0.0 0.0 0.00 0.00 0.00 75 1015.1
20260902082548 73 57 0.0 0.0 0.00 0.00 0.00 75 1015.0
20260902082045 73 57 0.0 0.0 0.00 0.00 0.00 75 1015.0
20260902081544 73 57 0.0 0.0 0.00 0.00 0.00 75 1015.0
20260902081044 73 57 0.0 0.0 0.00 0.00 0.00 75 1015.0
20260902080544 73 57 0.0 0.0 0.00 0.00 0.00 74 1015.0
20260902080043 73 57 0.0 0.0 0.00 0.00 0.00 74 1014.9
20260902075542 73 57 0.0 0.0 0.00 0.00 0.00 74 1015.0
20260902075043 73 57 0.0 0.0 0.00 0.00 0.00 74 1014.9
20260902074542 73 57 0.0 0.0 0.00 0.00 0.00 74 1014.9
20260902074041 73 57 0.0 0.0 0.00 0.00 0.00 74 1014.9
20260902073543 73 57 0.0 0.0 0.00 0.00 0.00 74 1014.9
20260902073041 73 57 0.0 0.0 0.00 0.00 0.00 74 1014.9
20260902072546 73 57 0.0 0.0 0.00 0.00 0.00 74 1014.8
20260902072044 74 57 0.0 0.0 0.00 0.00 0.00 74 1014.8
20260902071540 74 57 0.0 0.0 0.00 0.00 0.00 74 1014.8
20260902071040 74 57 0.0 0.0 0.00 0.00 0.00 74 1014.8
20260902070538 74 57 0.0 0.0 0.00 0.00 0.00 74 1014.8
20260902070038 74 57 0.0 0.0 0.00 0.00 0.00 74 1014.8
20260902065541 74 57 0.0 0.0 0.00 0.00 0.00 74 1014.8
20260902065037 74 57 0.0 0.0 0.00 0.00 0.00 74 1014.8
20260902064537 74 57 0.0 0.0 0.00 0.00 0.00 74 1014.7
20260902064041 74 57 0.0 0.0 0.00 0.00 0.00 74 1014.8
20260902063536 74 57 0.0 0.0 0.00 0.00 0.00 74 1014.8
20260902063051 74 57 0.0 0.0 0.00 0.00 0.00 74 1014.8
20260902062536 74 57 0.0 0.0 0.00 0.00 0.00 74 1014.8
20260902062035 74 57 0.0 0.0 0.00 0.00 0.00 74 1014.8
20260902061557 74 57 0.0 0.0 0.00 0.00 0.00 74 1014.8
20260902061040 75 57 0.0 0.0 0.00 0.00 0.00 74 1014.8
20260902060533 75 57 0.0 0.0 0.00 0.00 0.00 74 1014.9
20260902060040 75 57 0.0 0.0 0.00 0.00 0.00 74 1014.8
20260902055533 75 57 0.0 0.0 0.00 0.00 0.00 74 1014.9
20260902055032 75 57 0.0 0.0 0.00 0.00 0.00 74 1014.8
20260902054535 75 57 0.0 0.0 0.00 0.00 0.00 73 1014.9
20260902054031 75 57 0.0 0.0 0.00 0.00 0.00 73 1014.9
20260902053532 75 57 0.0 0.0 0.00 0.00 0.00 73 1014.9
20260902053037 75 57 0.0 0.0 0.00 0.00 0.00 73 1014.9
20260902052528 75 57 0.0 0.0 0.00 0.00 0.00 72 1014.9
20260902052028 75 57 0.0 0.0 0.00 0.00 0.00 72 1015.0
20260902051536 75 57 0.0 0.0 0.00 0.00 0.00 72 1015.0
20260902051027 76 57 0.0 0.0 0.00 0.00 0.00 72 1015.0
20260902050527 76 57 0.0 0.0 0.00 0.00 0.00 72 1015.0
20260902050031 76 57 0.0 0.0 0.00 0.00 0.00 72 1015.0
20260902045526 76 57 0.0 0.0 0.00 0.00 0.00 72 1014.9
20260902045026 76 57 0.0 0.0 0.00 0.00 0.00 72 1014.9
20260902044556 76 57 0.0 0.0 0.00 0.00 0.00 72 1015.0
20260902044027 76 57 0.0 0.0 0.00 0.00 0.00 72 1014.9
20260902043525 76 57 0.0 0.0 0.00 0.00 0.00 71 1014.9
20260902043023 76 57 0.0 0.0 0.00 0.00 0.00 71 1014.9
20260902042523 76 57 0.0 0.0 0.00 0.00 0.00 71 1015.0
20260902042024 76 57 0.0 0.0 0.00 0.00 0.00 72 1015.0
20260902041529 77 57 0.0 0.0 0.00 0.00 0.00 72 1015.0
20260902041025 77 57 0.0 0.0 0.00 0.00 0.00 71 1015.0
20260902040520 77 57 0.0 0.0 0.00 0.00 0.00 71 1015.0
20260902040020 77 57 0.0 0.0 0.00 0.00 0.00 71 1015.0
20260902035520 77 57 0.0 0.0 0.00 0.00 0.00 71 1015.0
20260902035022 77 57 0.0 0.0 0.00 0.00 0.00 71 1015.0
20260902034519 77 57 0.0 0.0 0.00 0.00 0.00 71 1015.0
20260902034020 77 57 0.0 0.0 0.00 0.00 0.00 71 1015.1
20260902033520 77 57 0.0 0.0 0.00 0.00 0.00 71 1015.1
20260902033018 78 57 0.0 0.0 0.00 0.00 0.00 71 1015.0
20260902032521 78 57 0.0 0.0 0.00 0.00 0.00 71 1015.0
20260902032017 78 57 0.0 0.0 0.00 0.00 0.00 71 1014.9
20260902031536 78 57 0.0 0.0 0.00 0.00 0.00 71 1015.0
20260902031017 78 57 0.0 0.0 0.00 0.00 0.00 71 1014.9
20260902030522 78 57 0.0 0.0 0.00 0.00 0.00 71 1015.0
20260902030017 78 57 0.0 0.0 0.00 0.00 0.00 71 1015.0
20260902025517 78 57 0.0 0.0 0.00 0.00 0.00 71 1015.0
20260902025017 78 57 0.0 0.0 0.00 0.00 0.00 71 1015.0
20260902024516 78 57 0.0 0.0 0.00 0.00 0.00 70 1015.0
20260902024017 79 57 0.0 0.0 0.00 0.00 0.00 70 1015.0
20260902023517 79 57 0.0 0.0 0.00 0.00 0.00 70 1014.9
20260902023022 79 57 0.0 0.0 0.00 0.00 0.00 70 1014.9
20260902022516 79 57 0.0 0.0 0.00 0.00 0.00 70 1015.0
20260902022018 79 57 0.0 0.0 0.00 0.00 0.00 69 1014.9
20260902021515 79 57 0.0 0.0 0.00 0.00 0.00 69 1014.9
20260902021015 80 57 0.0 0.0 0.00 0.00 0.00 69 1014.9
20260902020516 80 57 0.0 0.0 0.00 0.00 0.00 68 1015.0
20260902020018 80 57 0.0 0.0 0.00 0.00 0.00 68 1015.0
20260902015516 80 57 0.0 0.0 0.00 0.00 0.00 67 1015.0
20260902015015 80 57 0.0 0.0 0.00 0.00 0.00 67 1015.1
20260902014516 81 57 0.0 0.0 0.00 0.00 0.00 67 1015.0
20260902014015 81 57 0.0 0.0 0.00 0.00 0.00 66 1015.1
20260902013515 81 57 0.0 0.0 0.00 0.00 0.00 66 1015.1
20260902013014 81 57 0.0 0.0 0.00 0.00 0.00 66 1015.0
20260902012514 82 57 0.0 0.0 0.00 0.00 0.00 66 1015.0
20260902012013 82 57 0.0 0.0 0.00 0.00 0.00 66 1014.9
20260902011519 82 57 0.0 0.0 0.00 0.00 0.00 65 1014.8
20260902011015 83 57 0.0 0.0 0.00 0.00 0.00 65 1014.8
20260902010513 83 57 0.0 0.0 0.00 0.00 0.00 64 1014.7
20260902010015 83 57 0.0 0.0 0.00 0.00 0.00 64 1014.7
20260902005513 83 57 0.0 0.0 0.00 0.00 0.00 64 1014.6
20260902005013 84 57 0.0 0.0 0.00 0.00 0.00 64 1014.6
20260902004512 84 57 0.0 0.0 0.00 0.00 0.00 63 1014.5
20260902004012 84 57 0.0 0.0 0.00 0.00 0.00 63 1014.6
20260902003515 85 57 0.0 0.0 0.00 0.00 0.00 63 1014.5
20260902003012 85 57 0.0 0.0 0.00 0.00 0.00 62 1014.5
20260902002516 86 57 0.0 0.0 0.00 0.00 0.00 62 1014.5
20260902002011 86 57 0.0 0.0 0.00 0.00 0.00 61 1014.6
20260902001512 86 57 0.0 0.0 0.00 0.00 0.00 61 1014.6
20260902001011 87 57 0.0 0.0 0.00 0.00 0.00 60 1014.6
20260902000511 87 57 0.0 0.0 0.00 0.00 0.00 60 1014.6
20260902000011 87 57 0.0 0.0 0.00 0.00 0.00 59 1014.7
20260901235511 88 57 0.0 0.0 0.00 0.00 0.00 58 1014.6